Overview Statistics Trail Chart Weather Telemetry Raw packets
 

This is the latest recevied weather packets stored in our database for station/object IU5JAE-13. If no packets are shown the sender has not sent any weather packets the latest 10 day(s).

<< 39 40 41 42 43 44 45 >>
Time Temp. Humidity Pressure Rain* Wind** Luminosity Snow
1788112831 23.89° C 62% 1016.3 hPa 0 mm - 3 W/m² -
1788112229 23.89° C 64% 1016.3 hPa 0 mm - 6 W/m² -
1788111626 23.89° C 67% 1016.1 hPa 0 mm - 10 W/m² -
1788111024 24.44° C 67% 1016.2 hPa 0 mm - 14 W/m² -
1788110422 24.44° C 67% 1016 hPa 0 mm - 17 W/m² -
1788109819 24.44° C 68% 1016.1 hPa 0 mm - 19 W/m² -
1788109217 24.44° C 68% 1016.1 hPa 0 mm - 21 W/m² -
1788108634 24.44° C 68% 1016.1 hPa 0 mm - 23 W/m² -
1788108032 24.44° C 68% 1016.2 hPa 0 mm - 25 W/m² -
1788107429 25° C 67% 1016.3 hPa 0 mm - 26 W/m² -
1788106827 25° C 66% 1016.2 hPa 0 mm - 28 W/m² -
1788106225 27.22° C 60% 1016.2 hPa 0 mm - 61 W/m² -
1788105622 27.78° C 58% 1016.2 hPa 0 mm - 153 W/m² -
1788105020 27.78° C 57% 1016.2 hPa 0 mm - 170 W/m² -
1788104417 27.22° C 58% 1016.3 hPa 0 mm - 189 W/m² -
1788103835 27.22° C 58% 1016.4 hPa 0 mm - 208 W/m² -
1788103233 26.67° C 58% 1016.3 hPa 0 mm - 228 W/m² -
1788102630 27.22° C 57% 1016.4 hPa 0 mm - 250 W/m² -
1788102028 27.78° C 55% 1016.4 hPa 0 mm - 269 W/m² -
1788101426 27.78° C 54% 1016.4 hPa 0 mm - 286 W/m² -
1788100823 27.78° C 53% 1016.5 hPa 0 mm - 304 W/m² -
1788100221 27.78° C 51% 1016.5 hPa 0 mm - 320 W/m² -
1788099618 27.78° C 49% 1016.5 hPa 0 mm - 338 W/m² -
1788099016 28.33° C 46% 1016.7 hPa 0 mm - 357 W/m² -
1788098434 28.89° C 43% 1016.6 hPa 0 mm - 376 W/m² -

* Rain latest hour (hover to see other rain measurements)
** Current wind speed in m/s (hover to see current wind gust speed)